Location: Central Coast
(33.3208°S, 151.2336°E)
Time: 08:23:40
(UTC+10:00)

ISS - Visible Passes

Search period start: 23 July 2019 00:00
Search period end: 02 August 2019 00:00
Orbit: 409 x 418 km, 51.6° (Epoch: 22 July)

Date Brightness Start Highest point End Pass type
(mag) Time Alt. Az. Time Alt. Az. Time Alt. Az.
23 Jul -3.4 06:03:01 10° NW 06:06:20 68° NE 06:09:41 10° SE visible
24 Jul -2.0 05:14:32 13° NNW 05:17:07 32° NE 05:20:10 10° ESE visible
25 Jul -0.7 04:28:46 15° ENE 04:28:46 15° ENE 04:30:10 10° E visible
25 Jul -3.1 06:01:42 13° WNW 06:04:25 35° SW 06:07:34 10° SSE visible
26 Jul -3.6 05:15:27 61° S 05:15:27 61° S 05:18:26 10° SE visible
27 Jul -0.5 04:28:52 11° SE 04:28:52 11° SE 04:29:04 10° SE visible
27 Jul -1.9 06:01:45 14° SW 06:02:41 15° SSW 06:04:45 10° S visible
28 Jul -1.5 05:14:55 16° S 05:14:55 16° S 05:15:59 10° SSE visible
